Denver, CO

7:33 AM MST on November 21, 2017 (GMT -0700)
Denver International

Weather History for KDEN - March, 2012

Change the Weather History Date:

Saturday, March 17, 2012

  Actual Average Record
Temperature  
Mean Temperature 60 °F 41 °F  
Max Temperature 76 °F 55 °F 76 °F (2012)
Min Temperature 43 °F 27 °F -6 °F (1892)
Degree Days  
Heating Degree Days 5 24  
Month to date heating degree days 318 449  
Since 1 July heating degree days 4698 4888  
Cooling Degree Days 0 0  
Month to date cooling degree days 0 0  
Year to date cooling degree days 0 0  
Growing Degree Days 10 (Base 50)    
Moisture  
Dew Point 8 °F    
Average Humidity 17    
Maximum Humidity 28    
Minimum Humidity 5    
Precipitation  
Precipitation 0.00 in 0.03 in 0.60 in (1933)
Month to date precipitation 0.03 0.42  
Year to date precipitation 1.19 1.20  
Snow  
Snow 0.00 in - - ()
Month to date snowfall T  
Since 1 July snowfall 54.6  
Snow Depth 0.00 in    
Sea Level Pressure  
Sea Level Pressure 29.51 in    
Wind  
Wind Speed 15 mph (SSW)    
Max Wind Speed 32 mph    
Max Gust Speed 39 mph    
Visibility 10 miles    
Events      
T = Trace of Precipitation, MM = Missing Value Source: NWS Daily Summary

Daily Weather History Graph

Daily Weather History Graph

Search for Another Location

Airport or City:

Trip Planner

Search our weather history database for the weather conditions in past years. The results will help you decide how hot, cold, wet, or windy it might be!

Date:

Astronomy

Mar. 17, 2012 Rise Set
Actual Time 7:06 AM MDT 7:08 PM MDT
Civil Twilight 6:39 AM MDT 7:35 PM MDT
Nautical Twilight 6:07 AM MDT 8:06 PM MDT
Astronomical Twilight 5:35 AM MDT 8:38 PM MDT
Moon 4:08 AM MDT (3/17) 2:35 PM MDT (3/17)
Length of Visible Light 12h 56m
Length of Day
12h 02m
Waning Crescent, 22% of the Moon is Illuminated
Mar 17
Waning Crescent
Mar 22
New
Mar 30
First Quarter
Apr 6
Full
Apr 13
Last Quarter

Hourly Weather History & Observations

Time (MDT) Temp. Windchill Dew Point Humidity Pressure Visibility Wind Dir Wind Speed Gust Speed Precip Events Conditions
12:53 AM 50.0 °F - 17.1 °F 27% 29.63 in 10.0 mi SW 15.0 mph - N/A   Clear
1:53 AM 50.0 °F - 15.1 °F 25% 29.61 in 10.0 mi SSW 15.0 mph - N/A   Clear
2:53 AM 50.0 °F - 14.0 °F 24% 29.60 in 10.0 mi SSW 13.8 mph - N/A   Clear
3:53 AM 46.0 °F 40.2 °F 15.1 °F 29% 29.59 in 10.0 mi SW 12.7 mph - N/A   Partly Cloudy
4:53 AM 46.0 °F 40.6 °F 15.1 °F 29% 29.59 in 10.0 mi SSW 11.5 mph - N/A   Partly Cloudy
5:53 AM 50.0 °F - 12.9 °F 23% 29.57 in 10.0 mi SSW 15.0 mph - N/A   Partly Cloudy
6:53 AM 51.1 °F - 12.0 °F 21% 29.60 in 10.0 mi SSW 15.0 mph - N/A   Scattered Clouds
7:53 AM 51.1 °F - 14.0 °F 23% 29.62 in 10.0 mi SW 5.8 mph - N/A   Partly Cloudy
8:53 AM 57.9 °F - 12.9 °F 17% 29.62 in 10.0 mi SW 6.9 mph - N/A   Partly Cloudy
9:53 AM 63.0 °F - 14.0 °F 15% 29.60 in 10.0 mi SW 12.7 mph - N/A   Scattered Clouds
10:53 AM 69.1 °F - 12.0 °F 11% 29.57 in 10.0 mi WSW 15.0 mph - N/A   Scattered Clouds
11:53 AM 71.1 °F - 12.0 °F 10% 29.53 in 10.0 mi WSW 11.5 mph - N/A   Scattered Clouds
12:53 PM 72.0 °F - 9.0 °F 9% 29.50 in 10.0 mi South 11.5 mph 18.4 mph N/A   Mostly Cloudy
1:53 PM 72.0 °F - 5.0 °F 7% 29.46 in 10.0 mi SSW 11.5 mph - N/A   Mostly Cloudy
2:53 PM 75.0 °F - 3.9 °F 6% 29.42 in 10.0 mi South 17.3 mph 25.3 mph N/A   Mostly Cloudy
3:53 PM 75.0 °F - -2.0 °F 5% 29.42 in 10.0 mi South 24.2 mph 35.7 mph N/A   Mostly Cloudy
4:53 PM 73.0 °F - -4.0 °F 5% 29.41 in 10.0 mi South 26.5 mph 35.7 mph N/A   Mostly Cloudy
5:53 PM 71.1 °F - -2.0 °F 6% 29.38 in 10.0 mi South 27.6 mph 34.5 mph N/A   Mostly Cloudy
6:53 PM 63.0 °F - 1.0 °F 8% 29.42 in 10.0 mi South 16.1 mph - N/A   Mostly Cloudy
7:53 PM 54.0 °F - 6.1 °F 15% 29.45 in 10.0 mi South 17.3 mph - N/A   Mostly Cloudy
8:53 PM 60.1 °F - 1.9 °F 10% 29.43 in 10.0 mi South 20.7 mph - N/A   Mostly Cloudy
9:53 PM 55.0 °F - 5.0 °F 13% 29.44 in 10.0 mi South 17.3 mph - N/A   Scattered Clouds
10:53 PM 55.0 °F - 5.0 °F 13% 29.41 in 10.0 mi South 15.0 mph - N/A   Scattered Clouds
11:53 PM 54.0 °F - 7.0 °F 15% 29.42 in 10.0 mi South 15.0 mph - N/A   Mostly Cloudy